Time,TemperatureF,DewpointF,PressureIn,WindDirection,WindDirectionDegrees,WindSpeedMPH,WindSpeedGustMPH,Humidity,HourlyPrecipIn,Conditions,Clouds,dailyrainin,SoftwareType,DateUTC
2013-06-03 00:00:00,50.0,47.0,29.71,SW,223,0.0,4.0,89,0.00,,,0.00,weatherlink.com 1.10,2013-06-03 07:00:00,
2013-06-03 00:15:00,49.5,47.0,29.71,SSW,209,0.0,2.0,91,0.00,,,0.00,weatherlink.com 1.10,2013-06-03 07:15:00,
2013-06-03 00:30:00,48.9,47.0,29.72,SW,224,1.0,3.0,92,0.00,,,0.00,weatherlink.com 1.10,2013-06-03 07:30:00,
2013-06-03 00:45:00,48.4,46.0,29.72,SW,223,0.0,1.0,92,0.00,,,0.00,weatherlink.com 1.10,2013-06-03 07:45:00,
2013-06-03 01:00:00,48.2,46.0,29.72,SW,236,0.0,0.0,92,0.00,,,0.00,weatherlink.com 1.10,2013-06-03 08:00:00,
2013-06-03 01:15:00,48.1,46.0,29.72,SW,236,0.0,0.0,93,0.00,,,0.00,weatherlink.com 1.10,2013-06-03 08:15:00,
2013-06-03 01:30:00,48.0,46.0,29.72,SW,236,0.0,0.0,93,0.00,,,0.00,weatherlink.com 1.10,2013-06-03 08:30:00,
2013-06-03 01:45:00,48.0,46.0,29.73,WSW,242,0.0,0.0,93,0.00,,,0.00,weatherlink.com 1.10,2013-06-03 08:45:00,
2013-06-03 02:00:00,48.0,46.0,29.72,WSW,243,0.0,0.0,93,0.00,,,0.00,weatherlink.com 1.10,2013-06-03 09:00:00,
2013-06-03 02:15:00,47.7,46.0,29.73,WSW,243,0.0,0.0,93,0.00,,,0.00,weatherlink.com 1.10,2013-06-03 09:15:00,
2013-06-03 02:30:00,47.3,46.0,29.73,WSW,243,0.0,0.0,94,0.00,,,0.00,weatherlink.com 1.10,2013-06-03 09:30:00,
2013-06-03 02:45:00,47.1,46.0,29.73,WSW,243,0.0,0.0,94,0.00,,,0.00,weatherlink.com 1.10,2013-06-03 09:45:00,
2013-06-03 03:00:00,47.1,46.0,29.73,WSW,243,0.0,0.0,94,0.00,,,0.00,weatherlink.com 1.10,2013-06-03 10:00:00,
2013-06-03 03:15:00,47.0,46.0,29.74,WSW,243,0.0,0.0,95,0.00,,,0.00,weatherlink.com 1.10,2013-06-03 10:15:00,
2013-06-03 03:30:00,47.3,46.0,29.74,WSW,244,0.0,0.0,95,0.00,,,0.00,weatherlink.com 1.10,2013-06-03 10:30:00,
2013-06-03 03:45:00,47.5,46.0,29.74,WSW,244,0.0,0.0,95,0.00,,,0.00,weatherlink.com 1.10,2013-06-03 10:45:00,
2013-06-03 04:00:00,47.6,46.0,29.74,WSW,244,0.0,0.0,95,0.00,,,0.00,weatherlink.com 1.10,2013-06-03 11:00:00,
2013-06-03 04:15:00,47.5,46.0,29.75,WSW,244,0.0,0.0,95,0.00,,,0.00,weatherlink.com 1.10,2013-06-03 11:15:00,
2013-06-03 04:30:00,47.8,47.0,29.75,WSW,244,0.0,0.0,95,0.00,,,0.00,weatherlink.com 1.10,2013-06-03 11:30:00,
2013-06-03 04:45:00,48.3,47.0,29.75,WSW,243,0.0,0.0,95,0.00,,,0.00,weatherlink.com 1.10,2013-06-03 11:45:00,
2013-06-03 05:00:00,48.5,48.0,29.76,SW,233,0.0,0.0,96,0.00,,,0.00,weatherlink.com 1.10,2013-06-03 12:00:00,
2013-06-03 05:15:00,48.6,48.0,29.76,SW,232,0.0,0.0,96,0.00,,,0.00,weatherlink.com 1.10,2013-06-03 12:15:00,
2013-06-03 05:30:00,48.8,48.0,29.76,SW,232,0.0,0.0,96,0.00,,,0.00,weatherlink.com 1.10,2013-06-03 12:30:00,
2013-06-03 05:45:00,48.8,48.0,29.77,WNW,288,0.0,0.0,96,0.00,,,0.00,weatherlink.com 1.10,2013-06-03 12:45:00,
2013-06-03 06:00:00,49.0,48.0,29.77,WNW,288,0.0,0.0,96,0.00,,,0.00,weatherlink.com 1.10,2013-06-03 13:00:00,
2013-06-03 06:15:00,49.1,48.0,29.78,WNW,288,0.0,0.0,96,0.00,,,0.00,weatherlink.com 1.10,2013-06-03 13:15:00,
2013-06-03 06:30:00,49.2,48.0,29.79,SW,236,0.0,1.0,96,0.00,,,0.00,weatherlink.com 1.10,2013-06-03 13:30:00,
2013-06-03 06:46:00,49.2,48.0,29.79,SSW,198,0.0,1.0,96,0.00,,,0.00,weatherlink.com 1.10,2013-06-03 13:46:00,
2013-06-03 07:01:00,49.4,48.0,29.79,SSW,200,0.0,0.0,96,0.00,,,0.00,weatherlink.com 1.10,2013-06-03 14:01:00,
2013-06-03 07:16:00,49.4,48.0,29.80,SSW,200,0.0,0.0,96,0.00,,,0.00,weatherlink.com 1.10,2013-06-03 14:16:00,
2013-06-03 07:31:00,49.7,49.0,29.80,SSW,209,0.0,0.0,96,0.00,,,0.00,weatherlink.com 1.10,2013-06-03 14:31:00,
2013-06-03 07:46:00,49.6,49.0,29.81,SSW,209,0.0,2.0,96,0.00,,,0.00,weatherlink.com 1.10,2013-06-03 14:46:00,
2013-06-03 08:01:00,49.5,49.0,29.82,SSW,196,0.0,0.0,97,0.00,,,0.00,weatherlink.com 1.10,2013-06-03 15:01:00,
2013-06-03 08:16:00,49.3,48.0,29.82,SSW,211,0.0,5.0,96,0.00,,,0.00,weatherlink.com 1.10,2013-06-03 15:16:00,
2013-06-03 08:31:00,49.4,48.0,29.83,SSW,201,1.0,5.0,96,0.00,,,0.00,weatherlink.com 1.10,2013-06-03 15:31:00,
2013-06-03 08:46:00,49.7,49.0,29.83,SSW,212,2.0,7.0,97,0.00,,,0.00,weatherlink.com 1.10,2013-06-03 15:46:00,
2013-06-03 09:01:00,49.7,49.0,29.83,SW,219,3.0,8.0,97,0.00,,,0.00,weatherlink.com 1.10,2013-06-03 16:01:00,
2013-06-03 10:31:00,50.6,50.0,29.85,SW,222,3.0,9.0,97,0.00,,,0.00,weatherlink.com 1.10,2013-06-03 17:31:00,
2013-06-03 11:01:00,50.8,50.0,29.86,SSW,204,6.0,10.0,96,0.00,,,0.00,weatherlink.com 1.10,2013-06-03 18:01:00,
2013-06-03 11:16:00,50.8,50.0,29.86,SSW,198,6.0,11.0,96,0.00,,,0.00,weatherlink.com 1.10,2013-06-03 18:16:00,
2013-06-03 11:31:00,51.2,50.0,29.87,SW,219,6.0,10.0,95,0.00,,,0.00,weatherlink.com 1.10,2013-06-03 18:31:00,
2013-06-03 11:46:00,52.0,50.0,29.87,SW,224,6.0,13.0,94,0.00,,,0.00,weatherlink.com 1.10,2013-06-03 18:46:00,
2013-06-03 12:01:00,52.3,51.0,29.87,SSW,213,4.0,13.0,94,0.00,,,0.00,weatherlink.com 1.10,2013-06-03 19:01:00,
2013-06-03 12:16:00,53.4,51.0,29.87,SSW,207,9.0,11.0,91,0.00,,,0.00,weatherlink.com 1.10,2013-06-03 19:16:00,
2013-06-03 12:31:00,53.7,51.0,29.87,SW,236,7.0,11.0,90,0.00,,,0.00,weatherlink.com 1.10,2013-06-03 19:31:00,
2013-06-03 12:46:00,54.2,51.0,29.87,SW,223,10.0,14.0,88,0.00,,,0.00,weatherlink.com 1.10,2013-06-03 19:46:00,
2013-06-03 13:01:00,54.6,51.0,29.87,SSW,213,9.0,14.0,88,0.00,,,0.00,weatherlink.com 1.10,2013-06-03 20:01:00,
2013-06-03 13:16:00,54.3,51.0,29.88,SSW,208,7.0,14.0,87,0.00,,,0.00,weatherlink.com 1.10,2013-06-03 20:16:00,
2013-06-03 13:31:00,55.7,52.0,29.88,SW,227,9.0,15.0,86,0.00,,,0.00,weatherlink.com 1.10,2013-06-03 20:31:00,
2013-06-03 13:47:00,55.5,51.0,29.88,SSW,210,7.0,14.0,85,0.00,,,0.00,weatherlink.com 1.10,2013-06-03 20:47:00,
2013-06-03 14:01:00,55.5,51.0,29.89,SW,234,7.0,16.0,85,0.00,,,0.00,weatherlink.com 1.10,2013-06-03 21:01:00,
2013-06-03 14:16:00,55.2,51.0,29.88,SW,221,10.0,11.0,86,0.00,,,0.00,weatherlink.com 1.10,2013-06-03 21:16:00,
2013-06-03 14:31:00,54.8,51.0,29.88,SW,229,9.0,14.0,86,0.00,,,0.00,weatherlink.com 1.10,2013-06-03 21:31:00,
2013-06-03 14:46:00,55.4,51.0,29.88,SSW,209,9.0,15.0,86,0.00,,,0.00,weatherlink.com 1.10,2013-06-03 21:46:00,
2013-06-03 15:02:00,54.9,51.0,29.88,SW,215,7.0,13.0,87,0.00,,,0.00,weatherlink.com 1.10,2013-06-03 22:02:00,
2013-06-03 15:16:00,54.2,51.0,29.88,SW,215,7.0,15.0,88,0.00,,,0.00,weatherlink.com 1.10,2013-06-03 22:16:00,
2013-06-03 15:32:00,53.5,50.0,29.89,SW,217,4.0,13.0,89,0.00,,,0.00,weatherlink.com 1.10,2013-06-03 22:32:00,
2013-06-03 15:46:00,54.4,51.0,29.89,SW,217,7.0,13.0,87,0.00,,,0.00,weatherlink.com 1.10,2013-06-03 22:46:00,
2013-06-03 16:02:00,54.0,50.0,29.88,SSW,207,8.0,11.0,87,0.00,,,0.00,weatherlink.com 1.10,2013-06-03 23:02:00,
2013-06-03 16:17:00,54.0,51.0,29.88,SSW,200,6.0,12.0,88,0.00,,,0.00,weatherlink.com 1.10,2013-06-03 23:17:00,
2013-06-03 16:32:00,54.4,51.0,29.88,SSW,211,7.0,9.0,87,0.00,,,0.00,weatherlink.com 1.10,2013-06-03 23:32:00,
2013-06-03 16:46:00,55.2,51.0,29.88,SSW,196,7.0,8.0,86,0.00,,,0.00,weatherlink.com 1.10,2013-06-03 23:46:00,
2013-06-03 17:02:00,54.7,51.0,29.88,SSW,209,4.0,8.0,87,0.00,,,0.00,weatherlink.com 1.10,2013-06-04 00:02:00,
2013-06-03 17:17:00,54.8,50.0,29.87,SE,132,4.0,7.0,85,0.00,,,0.00,weatherlink.com 1.10,2013-06-04 00:17:00,
2013-06-03 17:32:00,53.3,50.0,29.87,SSW,204,3.0,9.0,88,0.00,,,0.00,weatherlink.com 1.10,2013-06-04 00:32:00,
2013-06-03 17:47:00,53.2,50.0,29.87,SW,224,3.0,7.0,89,0.00,,,0.00,weatherlink.com 1.10,2013-06-04 00:47:00,
2013-06-03 18:02:00,53.0,50.0,29.86,SSW,209,5.0,7.0,90,0.00,,,0.00,weatherlink.com 1.10,2013-06-04 01:02:00,
2013-06-03 18:17:00,53.0,50.0,29.86,SSW,209,7.0,8.0,90,0.00,,,0.00,weatherlink.com 1.10,2013-06-04 01:17:00,
2013-06-03 18:32:00,52.6,50.0,29.86,SW,215,6.0,8.0,91,0.00,,,0.00,weatherlink.com 1.10,2013-06-04 01:32:00,
2013-06-03 18:47:00,52.6,50.0,29.86,South,188,3.0,6.0,91,0.00,,,0.00,weatherlink.com 1.10,2013-06-04 01:47:00,
2013-06-03 19:02:00,52.2,50.0,29.87,SSW,201,5.0,7.0,91,0.00,,,0.00,weatherlink.com 1.10,2013-06-04 02:02:00,
2013-06-03 19:17:00,51.9,50.0,29.87,SSW,211,2.0,5.0,92,0.00,,,0.00,weatherlink.com 1.10,2013-06-04 02:17:00,
2013-06-03 19:32:00,51.2,49.0,29.87,SSW,212,2.0,5.0,92,0.00,,,0.00,weatherlink.com 1.10,2013-06-04 02:32:00,
2013-06-03 19:47:00,50.7,49.0,29.88,SSW,201,3.0,5.0,93,0.00,,,0.00,weatherlink.com 1.10,2013-06-04 02:47:00,
2013-06-03 20:02:00,50.5,49.0,29.88,SW,217,3.0,4.0,94,0.00,,,0.00,weatherlink.com 1.10,2013-06-04 03:02:00,
2013-06-03 20:17:00,50.4,49.0,29.88,SSW,211,0.0,4.0,94,0.00,,,0.00,weatherlink.com 1.10,2013-06-04 03:17:00,
2013-06-03 20:32:00,50.4,49.0,29.89,South,190,1.0,3.0,94,0.00,,,0.00,weatherlink.com 1.10,2013-06-04 03:32:00,
2013-06-03 20:47:00,50.4,49.0,29.89,SSW,209,0.0,3.0,94,0.00,,,0.00,weatherlink.com 1.10,2013-06-04 03:47:00,
2013-06-03 21:02:00,50.4,49.0,29.89,SSW,211,0.0,4.0,94,0.00,,,0.00,weatherlink.com 1.10,2013-06-04 04:02:00,
2013-06-03 21:17:00,50.3,49.0,29.90,SW,215,0.0,4.0,95,0.00,,,0.00,weatherlink.com 1.10,2013-06-04 04:17:00,
2013-06-03 21:32:00,50.0,49.0,29.90,SW,220,3.0,5.0,95,0.00,,,0.00,weatherlink.com 1.10,2013-06-04 04:32:00,
2013-06-03 21:47:00,49.9,49.0,29.91,SSW,197,0.0,5.0,95,0.00,,,0.00,weatherlink.com 1.10,2013-06-04 04:47:00,
2013-06-03 22:02:00,50.0,49.0,29.91,SSW,210,0.0,4.0,95,0.00,,,0.00,weatherlink.com 1.10,2013-06-04 05:02:00,
2013-06-03 22:17:00,50.1,49.0,29.91,SW,229,1.0,4.0,95,0.00,,,0.00,weatherlink.com 1.10,2013-06-04 05:17:00,
2013-06-03 22:32:00,50.2,49.0,29.91,SW,215,0.0,3.0,95,0.00,,,0.00,weatherlink.com 1.10,2013-06-04 05:32:00,
2013-06-03 22:47:00,50.2,49.0,29.91,SW,226,0.0,1.0,95,0.00,,,0.00,weatherlink.com 1.10,2013-06-04 05:47:00,
2013-06-03 23:02:00,50.2,49.0,29.91,SSW,200,0.0,0.0,95,0.00,,,0.00,weatherlink.com 1.10,2013-06-04 06:02:00,
2013-06-03 23:17:00,50.3,49.0,29.91,SSW,202,0.0,0.0,95,0.00,,,0.00,weatherlink.com 1.10,2013-06-04 06:17:00,
2013-06-03 23:32:00,50.3,49.0,29.91,SSW,203,0.0,0.0,95,0.00,,,0.00,weatherlink.com 1.10,2013-06-04 06:32:00,
2013-06-03 23:47:00,50.4,49.0,29.91,SSW,203,0.0,0.0,95,0.00,,,0.00,weatherlink.com 1.10,2013-06-04 06:47:00,